TimeEDT,TemperatureF,Dew PointF,Humidity,Sea Level PressureIn,VisibilityMPH,Wind Direction,Wind SpeedMPH,Gust SpeedMPH,PrecipitationIn,Events,Conditions,WindDirDegrees,DateUTC
12:15 AM,67.3,59.4,76,30.26,10.0,WSW,3.5,-,N/A,,Scattered Clouds,250,2013-06-21 04:15:00
12:35 AM,66.6,59.4,78,30.27,10.0,SSW,3.5,-,N/A,,Clear,210,2013-06-21 04:35:00
12:55 AM,66.2,59.4,79,30.26,10.0,SSW,4.6,-,N/A,,Clear,210,2013-06-21 04:55:00
1:15 AM,66.6,59.5,78,30.26,10.0,SSW,4.6,-,N/A,,Scattered Clouds,210,2013-06-21 05:15:00
1:35 AM,66.4,59.7,79,30.26,10.0,WSW,3.5,-,N/A,,Scattered Clouds,250,2013-06-21 05:35:00
1:55 AM,66.9,59.5,77,30.26,10.0,WSW,4.6,-,N/A,,Clear,240,2013-06-21 05:55:00
2:15 AM,65.8,59.4,80,30.26,10.0,WSW,5.8,-,N/A,,Scattered Clouds,240,2013-06-21 06:15:00
2:35 AM,65.8,59.4,80,30.26,10.0,WSW,5.8,-,N/A,,Scattered Clouds,250,2013-06-21 06:35:00
2:55 AM,64.9,59.2,82,30.26,10.0,WSW,4.6,-,N/A,,Scattered Clouds,240,2013-06-21 06:55:00
3:15 AM,63.1,59.5,88,30.25,10.0,SW,4.6,-,N/A,,Scattered Clouds,220,2013-06-21 07:15:00
3:35 AM,64.0,59.2,84,30.25,10.0,SW,4.6,-,N/A,,Scattered Clouds,230,2013-06-21 07:35:00
3:55 AM,64.4,59.2,83,30.25,10.0,WSW,5.8,-,N/A,,Scattered Clouds,240,2013-06-21 07:55:00
4:15 AM,63.7,59.0,85,30.25,10.0,SW,5.8,-,N/A,,Scattered Clouds,230,2013-06-21 08:15:00
4:35 AM,64.4,59.5,84,30.26,10.0,West,3.5,-,N/A,,Mostly Cloudy,260,2013-06-21 08:35:00
4:55 AM,63.7,59.5,86,30.26,10.0,WSW,3.5,-,N/A,,Mostly Cloudy,250,2013-06-21 08:55:00
5:15 AM,63.1,59.2,87,30.27,10.0,SW,4.6,-,N/A,,Scattered Clouds,230,2013-06-21 09:15:00
5:35 AM,62.1,59.0,90,30.28,10.0,Calm,Calm,-,N/A,,Mostly Cloudy,0,2013-06-21 09:35:00
5:53 AM,62.6,59.0,88,30.29,10.0,Calm,Calm,-,N/A,,Scattered Clouds,0,2013-06-21 09:53:00
6:53 AM,62.6,59.0,88,30.29,10.0,Calm,Calm,-,N/A,,Scattered Clouds,0,2013-06-21 10:53:00
7:53 AM,66.2,59.0,78,30.30,10.0,Calm,Calm,-,N/A,,Clear,0,2013-06-21 11:53:00
8:53 AM,69.8,60.8,73,30.29,10.0,Calm,Calm,-,N/A,,Clear,0,2013-06-21 12:53:00
9:53 AM,71.6,60.8,69,30.28,10.0,Calm,Calm,-,N/A,,Clear,0,2013-06-21 13:53:00
10:53 AM,75.2,62.6,65,30.29,10.0,Calm,Calm,-,N/A,,Clear,0,2013-06-21 14:53:00
11:53 AM,77.0,62.6,61,30.29,10.0,Calm,Calm,-,N/A,,Scattered Clouds,0,2013-06-21 15:53:00
12:53 PM,78.8,59.0,51,30.27,10.0,Calm,Calm,-,N/A,,Mostly Cloudy,0,2013-06-21 16:53:00
1:53 PM,77.0,60.8,57,30.27,10.0,WSW,8.1,-,N/A,,Mostly Cloudy,250,2013-06-21 17:53:00
2:53 PM,78.8,60.8,54,30.26,10.0,SW,5.8,-,N/A,,Mostly Cloudy,230,2013-06-21 18:53:00
3:53 PM,80.6,60.8,51,30.25,10.0,SSW,6.9,-,N/A,,Mostly Cloudy,200,2013-06-21 19:53:00
4:53 PM,80.6,60.8,51,30.25,10.0,WSW,5.8,-,N/A,,Mostly Cloudy,240,2013-06-21 20:53:00
5:53 PM,80.6,60.8,51,30.23,10.0,South,4.6,-,N/A,,Scattered Clouds,190,2013-06-21 21:53:00
6:53 PM,78.8,60.8,54,30.23,10.0,South,6.9,-,N/A,,Partly Cloudy,180,2013-06-21 22:53:00
7:53 PM,77.0,60.8,57,30.23,10.0,South,6.9,-,N/A,,Partly Cloudy,180,2013-06-21 23:53:00
8:53 PM,73.4,60.8,65,30.23,10.0,SSW,3.5,-,N/A,,Partly Cloudy,210,2013-06-22 00:53:00
9:35 PM,73.4,60.8,65,30.22,10.0,South,4.6,-,N/A,,Clear,180,2013-06-22 01:35:00
9:55 PM,72.5,60.8,67,30.24,10.0,SSW,3.5,-,N/A,,Clear,210,2013-06-22 01:55:00
10:15 PM,72.0,60.4,67,30.24,10.0,SW,3.5,-,N/A,,Clear,220,2013-06-22 02:15:00
10:35 PM,72.7,60.4,65,30.25,10.0,WSW,4.6,-,N/A,,Mostly Cloudy,240,2013-06-22 02:35:00
10:55 PM,71.6,60.8,69,30.25,10.0,SSW,5.8,-,N/A,,Scattered Clouds,200,2013-06-22 02:55:00
11:15 PM,71.6,59.7,66,30.25,10.0,SSW,4.6,-,N/A,,Clear,210,2013-06-22 03:15:00
11:35 PM,70.3,59.2,68,30.25,10.0,SSW,4.6,-,N/A,,Scattered Clouds,210,2013-06-22 03:35:00
11:55 PM,70.0,58.3,66,30.25,10.0,SSW,4.6,-,N/A,,Scattered Clouds,210,2013-06-22 03:55:00